MDT,Max TemperatureF,Mean TemperatureF,Min TemperatureF,Max Dew PointF,MeanDew PointF,Min DewpointF,Max Humidity, Mean Humidity, Min Humidity, Max Sea Level PressureIn, Mean Sea Level PressureIn, Min Sea Level PressureIn, Max VisibilityMiles, Mean VisibilityMiles, Min VisibilityMiles, Max Wind SpeedMPH, Mean Wind SpeedMPH, Max Gust SpeedMPH,PrecipitationIn, CloudCover, Events, WindDirDegrees
2013-5-1,53,40,26,30,16,3,89,52,14,30.61,30.39,30.13,10,9,2,15,6,20,0.00,4,Snow,316
2013-5-2,62,42,22,22,14,9,68,41,14,30.67,30.54,30.32,10,10,10,13,4,16,0.00,0,,263
2013-5-3,70,50,30,32,21,8,78,44,9,30.32,30.11,29.96,10,10,10,23,5,29,0.00,1,,347
2013-5-4,66,55,44,39,34,28,76,51,26,29.99,29.94,29.91,10,10,10,26,14,36,T,3,Rain,39
2013-5-5,73,56,39,37,34,30,79,51,22,29.97,29.88,29.80,10,10,10,16,9,21,0.00,1,,24
2013-5-6,72,53,33,43,36,31,89,56,23,29.91,29.85,29.80,10,10,10,29,6,37,0.04,3,Rain-Thunderstorm,66
2013-5-7,63,55,47,45,42,37,80,61,42,29.94,29.88,29.82,10,10,9,28,7,32,0.02,5,Rain,104
2013-5-8,68,53,38,47,40,36,92,65,37,30.07,30.00,29.95,10,10,10,23,7,28,0.01,3,Rain-Thunderstorm,134
2013-5-9,77,56,35,43,37,30,92,56,19,30.20,30.09,30.01,10,10,10,31,6,40,0.00,3,,27
2013-5-10,80,58,36,43,34,20,92,52,11,30.27,30.16,30.10,10,10,10,18,6,23,0.00,1,,12
2013-5-11,83,62,40,41,33,22,76,44,12,30.25,30.19,30.12,10,10,10,18,6,24,0.00,1,,259
2013-5-12,88,65,42,39,33,26,70,41,11,30.17,30.08,29.97,10,10,10,21,7,28,0.00,0,,244
2013-5-13,90,69,48,44,36,31,71,43,15,30.01,29.92,29.81,10,10,10,21,10,24,0.00,0,,263
2013-5-14,79,68,56,41,37,28,55,37,19,29.99,29.88,29.81,10,10,10,28,15,35,0.00,0,,229
2013-5-15,80,67,54,38,35,26,54,35,15,29.93,29.81,29.72,10,10,10,26,12,32,T,1,Rain,234
2013-5-16,71,60,48,43,38,34,71,50,28,29.87,29.79,29.73,10,10,10,26,13,31,T,3,,228
2013-5-17,62,55,48,48,44,41,89,70,51,29.94,29.85,29.79,10,10,10,17,8,21,0.03,7,Rain,197
2013-5-18,67,56,45,44,36,27,80,52,24,30.01,29.93,29.88,10,10,10,28,17,33,T,6,Rain,230
2013-5-19,58,51,43,45,40,31,83,67,51,30.11,30.05,29.97,10,10,5,22,11,29,0.24,7,Rain,225
2013-5-20,68,57,45,45,41,37,86,60,34,30.21,30.10,30.03,10,10,9,17,7,22,0.08,5,Rain,235
2013-5-21,75,57,39,44,37,31,92,59,25,30.03,29.81,29.53,10,10,10,26,13,33,0.00,1,,168
2013-5-22,68,53,38,39,28,18,65,46,26,29.93,29.75,29.53,10,10,10,26,17,32,T,2,,238
2013-5-23,63,49,34,33,29,23,82,55,27,29.94,29.86,29.75,10,10,10,32,8,40,T,5,Rain,293
2013-5-24,71,54,36,32,19,9,59,34,9,30.04,29.93,29.82,10,10,10,24,8,30,0.00,0,,189
2013-5-25,70,53,35,34,30,25,70,44,18,29.91,29.86,29.80,10,10,10,21,8,26,0.00,0,,225
2013-5-26,75,57,38,42,34,28,79,49,18,29.90,29.84,29.77,10,10,10,29,7,39,T,1,,252
2013-5-27,68,56,44,40,33,25,65,42,19,29.98,29.89,29.78,10,10,10,24,13,29,T,4,,251
2013-5-28,55,49,42,48,44,39,93,81,68,29.83,29.77,29.70,10,10,7,22,10,26,0.19,6,Rain,236
2013-5-29,67,57,46,43,38,32,82,56,30,29.84,29.75,29.70,10,10,10,31,15,37,T,4,Rain,232
2013-5-30,67,54,40,39,32,20,86,53,19,29.94,29.89,29.78,10,10,10,29,18,39,0.00,3,,231
2013-5-31,69,56,43,34,28,19,70,44,18,30.17,30.10,29.96,10,10,10,22,15,26,0.00,2,,228